When you browse on this site, cookies collect data to enhance your experience and personalize the content and advertising you see.
Visit our Privacy Policy to learn more. By continuing to use the site, you agree to this use of cookies and data.
  • în România
  • Lista ţărilor
  • Pe 7 zile
  • Temperatura apei
  • Meteo pe hartă
  • Widget-uri
  • user-avatar
    Intrare

    Meteo pe oră la Dęblin

    Astăzi, 20 Septembrie, Vineri

    Timp Temperatura Precipitaţii Vânt Presiune Umiditate
    00:00 +5°C° 0 mm 3 m/s 757 mmHg 83%
    01:00 +5°C° 0 mm 3 m/s 757 mmHg 86%
    02:00 +5°C° 0 mm 3 m/s 757 mmHg 88%
    03:00 +4°C° 0 mm 3 m/s 757 mmHg 89%
    04:00 +4°C° 0 mm 3 m/s 757 mmHg 91%
    05:00 +5°C° 0 mm 3 m/s 757 mmHg 87%
    06:00 +6°C° 0 mm 4 m/s 757 mmHg 83%
    07:00 +6°C° 0 mm 4 m/s 757 mmHg 79%
    08:00 +8°C° 0 mm 4 m/s 757 mmHg 70%
    09:00 +11°C° 0 mm 4 m/s 758 mmHg 61%
    10:00 +12°C° 0 mm 4 m/s 758 mmHg 51%
    11:00 +13°C° 0 mm 4 m/s 757 mmHg 50%
    12:00 +13°C° 0 mm 4 m/s 757 mmHg 48%
    13:00 +13°C° 0 mm 4 m/s 757 mmHg 47%
    14:00 +13°C° 0 mm 4 m/s 757 mmHg 48%
    15:00 +13°C° 0 mm 4 m/s 757 mmHg 48%
    16:00 +13°C° 0 mm 4 m/s 757 mmHg 49%
    17:00 +12°C° 0 mm 4 m/s 757 mmHg 53%
    18:00 +11°C° 0 mm 3 m/s 757 mmHg 58%
    19:00 +9°C° 0 mm 2 m/s 757 mmHg 62%
    20:00 +9°C° 0 mm 2 m/s 757 mmHg 63%
    21:00 +9°C° 0 mm 2 m/s 757 mmHg 64%
    22:00 +9°C° 0 mm 2 m/s 757 mmHg 65%
    23:00 +9°C° 0 mm 3 m/s 757 mmHg 64%

    Mâine, 21 Septembrie, Sâmbătă

    Timp Temperatura Precipitaţii Vânt Presiune Umiditate
    00:00 +10°C° 0 mm 3 m/s 757 mmHg 62%
    01:00 +10°C° 0 mm 4 m/s 757 mmHg 61%
    02:00 +10°C° 0 mm 4 m/s 756 mmHg 64%
    03:00 +10°C° 0 mm 4 m/s 756 mmHg 68%
    04:00 +10°C° 0 mm 5 m/s 756 mmHg 71%
    05:00 +10°C° 0 mm 5 m/s 756 mmHg 73%
    06:00 +10°C° 0 mm 5 m/s 756 mmHg 76%
    07:00 +10°C° 0 mm 5 m/s 756 mmHg 78%
    08:00 +12°C° 0 mm 5 m/s 756 mmHg 74%
    09:00 +14°C° 0 mm 6 m/s 756 mmHg 70%
    10:00 +15°C° 0 mm 6 m/s 756 mmHg 67%
    11:00 +15°C° 0 mm 6 m/s 756 mmHg 65%
    12:00 +16°C° 0 mm 6 m/s 756 mmHg 64%
    13:00 +16°C° 0 mm 6 m/s 755 mmHg 63%
    14:00 +16°C° 0 mm 5 m/s 755 mmHg 64%
    15:00 +17°C° 0 mm 4 m/s 755 mmHg 65%
    16:00 +17°C° 0 mm 4 m/s 755 mmHg 66%
    17:00 +16°C° 0 mm 3 m/s 755 mmHg 69%
    18:00 +16°C° 0 mm 3 m/s 755 mmHg 72%
    19:00 +15°C° 0 mm 2 m/s 755 mmHg 76%
    20:00 +14°C° 0 mm 2 m/s 755 mmHg 79%
    21:00 +13°C° 0 mm 1 m/s 755 mmHg 82%
    22:00 +12°C° 0 mm 1 m/s 755 mmHg 86%
    23:00 +12°C° 0 mm 1 m/s 755 mmHg 87%

    Poimâine, 22 Septembrie, Duminică

    Timp Temperatura Precipitaţii Vânt Presiune Umiditate
    00:00 +12°C° 0 mm 2 m/s 755 mmHg 89%
    01:00 +10°C° 0 mm 2 m/s 755 mmHg 91%
    02:00 +10°C° 0 mm 2 m/s 755 mmHg 91%
    03:00 +10°C° 0 mm 2 m/s 755 mmHg 91%
    04:00 +10°C° 0 mm 2 m/s 755 mmHg 92%
    05:00 +10°C° 0 mm 2 m/s 755 mmHg 88%
    06:00 +12°C° 0 mm 2 m/s 754 mmHg 84%
    07:00 +13°C° 0 mm 2 m/s 754 mmHg 80%
    08:00 +15°C° 0 mm 2 m/s 754 mmHg 72%
    09:00 +17°C° 0 mm 2 m/s 754 mmHg 64%
    10:00 +19°C° 0 mm 2 m/s 754 mmHg 56%
    11:00 +20°C° 0 mm 2 m/s 754 mmHg 52%
    12:00 +21°C° 0 mm 2 m/s 754 mmHg 48%
    13:00 +23°C° 0 mm 2 m/s 753 mmHg 44%
    14:00 +23°C° 0 mm 2 m/s 753 mmHg 46%
    15:00 +23°C° 0 mm 1 m/s 752 mmHg 47%
    16:00 +23°C° 0 mm 1 m/s 752 mmHg 48%
    17:00 +21°C° 0 mm 1 m/s 752 mmHg 53%
    18:00 +19°C° 0 mm 1 m/s 752 mmHg 57%
    19:00 +16°C° 0 mm 1 m/s 752 mmHg 61%
    20:00 +15°C° 0 mm 1 m/s 752 mmHg 63%
    21:00 +15°C° 0 mm 1 m/s 751 mmHg 65%
    22:00 +14°C° 0 mm 2 m/s 751 mmHg 66%
    23:00 +13°C° 0 mm 2 m/s 751 mmHg 66%

    23 Septembrie, Luni

    Timp Temperatura Precipitaţii Vânt Presiune Umiditate
    00:00 +13°C° 0 mm 2 m/s 751 mmHg 65%
    01:00 +13°C° 0 mm 2 m/s 751 mmHg 65%
    02:00 +12°C° 0 mm 2 m/s 750 mmHg 66%
    03:00 +12°C° 0 mm 2 m/s 750 mmHg 66%
    04:00 +11°C° 0 mm 3 m/s 750 mmHg 67%
    05:00 +11°C° 0 mm 3 m/s 749 mmHg 66%
    06:00 +12°C° 0 mm 4 m/s 749 mmHg 66%
    07:00 +13°C° 0 mm 4 m/s 749 mmHg 65%
    08:00 +15°C° 0 mm 5 m/s 749 mmHg 59%
    09:00 +16°C° 0 mm 5 m/s 749 mmHg 53%
    10:00 +19°C° 0 mm 5 m/s 749 mmHg 47%
    11:00 +19°C° 0 mm 5 m/s 748 mmHg 52%
    12:00 +19°C° 0 mm 5 m/s 748 mmHg 56%
    13:00 +19°C° 0 mm 5 m/s 748 mmHg 61%
    14:00 +17°C° 0 mm 5 m/s 747 mmHg 64%
    15:00 +18°C° 0 mm 4 m/s 747 mmHg 67%
    16:00 +17°C° 0 mm 4 m/s 747 mmHg 70%
    17:00 +15°C° 0 mm 4 m/s 747 mmHg 76%
    18:00 +14°C° 0 mm 3 m/s 747 mmHg 82%
    19:00 +14°C° 0 mm 2 m/s 747 mmHg 88%
    20:00 +14°C° 0 mm 2 m/s 747 mmHg 88%
    21:00 +14°C° 0 mm 2 m/s 747 mmHg 88%
    22:00 +14°C° 0 mm 1 m/s 747 mmHg 88%
    23:00 +14°C° 0 mm 2 m/s 747 mmHg 88%

    24 Septembrie, Marţi

    Timp Temperatura Precipitaţii Vânt Presiune Umiditate
    00:00 +13°C° 0 mm 2 m/s 747 mmHg 89%
    01:00 +13°C° 0 mm 2 m/s 747 mmHg 90%
    02:00 +13°C° 0 mm 2 m/s 747 mmHg 90%
    03:00 +13°C° 0 mm 2 m/s 747 mmHg 91%
    04:00 +12°C° 0 mm 2 m/s 747 mmHg 91%
    05:00 +13°C° 0 mm 2 m/s 748 mmHg 89%
    06:00 +13°C° 0 mm 2 m/s 748 mmHg 88%
    07:00 +13°C° 0 mm 2 m/s 748 mmHg 86%
    08:00 +15°C° 0 mm 2 m/s 748 mmHg 78%
    09:00 +17°C° 0 mm 2 m/s 749 mmHg 71%
    10:00 +18°C° 0 mm 2 m/s 749 mmHg 63%
    11:00 +19°C° 0 mm 3 m/s 749 mmHg 59%
    12:00 +20°C° 0 mm 3 m/s 749 mmHg 54%
    13:00 +21°C° 0 mm 3 m/s 749 mmHg 50%
    14:00 +21°C° 0 mm 3 m/s 749 mmHg 51%
    15:00 +21°C° 0 mm 3 m/s 749 mmHg 53%
    16:00 +21°C° 0 mm 3 m/s 749 mmHg 54%
    17:00 +19°C° 0 mm 3 m/s 749 mmHg 60%
    18:00 +17°C° 0 mm 3 m/s 749 mmHg 66%
    19:00 +14°C° 0 mm 3 m/s 750 mmHg 72%
    20:00 +13°C° 0 mm 3 m/s 750 mmHg 75%
    21:00 +13°C° 0 mm 3 m/s 750 mmHg 77%
    22:00 +12°C° 0 mm 3 m/s 750 mmHg 80%
    23:00 +11°C° 0 mm 3 m/s 750 mmHg 81%

    25 Septembrie, Miercuri

    Timp Temperatura Precipitaţii Vânt Presiune Umiditate
    00:00 +12°C° 0 mm 2 m/s 750 mmHg 82%
    01:00 +10°C° 0 mm 2 m/s 750 mmHg 83%
    02:00 +10°C° 0 mm 2 m/s 750 mmHg 83%
    03:00 +10°C° 0 mm 2 m/s 749 mmHg 83%
    04:00 +10°C° 0 mm 2 m/s 749 mmHg 84%
    05:00 +10°C° 0 mm 3 m/s 749 mmHg 82%
    06:00 +11°C° 0 mm 3 m/s 749 mmHg 80%
    07:00 +11°C° 0 mm 3 m/s 749 mmHg 78%
    08:00 +13°C° 0 mm 3 m/s 749 mmHg 73%
    09:00 +16°C° 0 mm 3 m/s 749 mmHg 69%
    10:00 +17°C° 0 mm 4 m/s 749 mmHg 64%
    11:00 +18°C° 0 mm 4 m/s 748 mmHg 61%
    12:00 +19°C° 0 mm 4 m/s 748 mmHg 57%
    13:00 +20°C° 0 mm 4 m/s 747 mmHg 54%
    14:00 +20°C° 0.1 mm 3 m/s 747 mmHg 59%
    15:00 +19°C° 0.1 mm 3 m/s 747 mmHg 63%
    16:00 +19°C° 0.1 mm 3 m/s 746 mmHg 67%
    17:00 +18°C° 0.1 mm 3 m/s 746 mmHg 73%
    18:00 +16°C° 0.1 mm 2 m/s 746 mmHg 78%
    19:00 +15°C° 0.1 mm 2 m/s 746 mmHg 83%
    20:00 +14°C° 0 mm 3 m/s 746 mmHg 84%
    21:00 +14°C° 0 mm 3 m/s 746 mmHg 85%
    22:00 +14°C° 0 mm 3 m/s 746 mmHg 86%
    23:00 +14°C° 0 mm 3 m/s 745 mmHg 85%
    Arată mai mult